Content
SEND FEEDBACK

Daily
Averages
Monthly
Summary
Netherlands

AMSTERDAM, NETHERLANDS


Home > Europe > Netherlands
Elevation: 7 feet     Latitude: 52 18N     Longitude: 004 46E

WEATHER
 
SELECT A DAY
Number of Records: 309,556;   Date Range: 7/1/96 - 10/22/14
 
SHARE

PRINT THIS DATA

[ ← Previous Day ]
WEATHER ALMANAC - JUNE 12, 2013
[ Next Day → ]
[ °C ]   °F
Weather ElementAverageHighLow
Temperature63.7 °F68 °F (2:25 pm)59 °F (2:55 am)
Dewpoint57 °F60.8 °F (12:55 pm)51.8 °F (12:55 am)
Humidity78.3 %100 % (10:55 pm)58 % (5:00 pm)
Barometer29.95 in30.01 in (12:55 am)29.89 in (11:55 pm)
Wind Speed11.3 mph20.7 mph (1:55 pm)
Weather ElementAverage
Visibility6.4 mi
Wind DirectionSSW (192.7 °)

Weather ElementTotal
Precipitation---
Heating Degree Days1.5 (Base 65)
Growing Degree Days13.5 (Base 50)
Averaged from 55 records on June 12, 2013
WEATHER CONDITIONS BREAKOUT
WIND DIRECTION BREAKOUT
WEATHER BY HOUR - JUNE 12, 2013
[ °C ]   °F
Local TimeTemperatureDewpointHumidityBarometerVisibilityWind DirectionWind SpeedGust SpeedPrecipitationEventsConditions
12:55 AM60.8 °F51.8 °F72 %30.01 in6.2 miWNW (290°)2.3 mphMostly Cloudy
1:25 AM60.8 °F51.8 °F72 %30.01 in6.2 miVariable1.2 mphScattered Clouds
1:55 AM60.8 °F51.8 °F72 %30.01 in6.2 miESE (120°)2.3 mphScattered Clouds
2:00 AM60.0 °F53.0 °F70 %30.01 in7.0 miESE (110°)2.2 mphPartly Cloudy
2:25 AM60.8 °F53.6 °F77 %29.98 in6.2 miSSE (150°)4.6 mphPartly Cloudy
2:55 AM59.0 °F53.6 °F82 %29.98 in6.2 miSE (130°)4.6 mphPartly Cloudy
3:25 AM60.8 °F53.6 °F77 %29.98 in5.6 miSSE (150°)5.8 mphPartly Cloudy
3:55 AM60.8 °F53.6 °F77 %29.98 in4.3 miSE (140°)5.8 mph
4:25 AM60.8 °F55.4 °F82 %29.98 in4.3 miSE (140°)5.8 mph
4:55 AM60.8 °F55.4 °F82 %29.95 in3.7 miSSE (160°)6.9 mphPartly Cloudy
5:00 AM61.0 °F56.0 °F77 %29.97 in4.0 miSSE (160°)6.7 mphLight Haze
5:25 AM60.8 °F57.2 °F88 %29.95 in4.3 miSSE (160°)9.2 mph
5:55 AM62.6 °F57.2 °F82 %29.95 in5.6 miSouth (170°)11.5 mph
6:25 AM62.6 °F57.2 °F82 %29.95 inSouth (170°)11.5 mphClear
6:55 AM62.6 °F57.2 °F82 %29.95 in6.2 miSouth (170°)12.7 mphPartly Cloudy
7:25 AM62.6 °F57.2 °F82 %29.95 in6.2 miSouth (170°)11.5 mphPartly Cloudy
7:55 AM62.6 °F57.2 °F82 %29.95 in6.2 miSouth (180°)12.7 mphPartly Cloudy
8:00 AM63.0 °F58.0 °F77 %29.96 in7.0 miSouth (180°)13.4 mphPartly Cloudy
8:25 AM64.4 °F57.2 °F77 %29.95 in6.2 miSouth (190°)12.7 mphScattered Clouds
8:55 AM64.4 °F59.0 °F83 %29.95 in6.2 miSSW (200°)12.7 mphScattered Clouds
9:25 AM64.4 °F59.0 °F83 %29.95 in6.2 miSouth (190°)15.0 mphScattered Clouds
9:55 AM66.2 °F59.0 °F78 %29.95 in6.2 miSouth (190°)13.8 mphScattered Clouds
10:25 AM66.2 °F57.2 °F73 %29.95 in6.2 miSSW (200°)13.8 mphMostly Cloudy
10:55 AM66.2 °F57.2 °F73 %29.95 in6.2 miSSW (200°)18.4 mphMostly Cloudy
11:00 AM67.0 °F58.0 °F66 %29.96 in16.0 miSouth (190°)17.9 mphOvercast
11:25 AM66.2 °F57.2 °F73 %29.95 in6.2 miSouth (190°)19.6 mphMostly Cloudy
11:55 AM66.2 °F55.4 °F68 %29.95 in6.2 miSSW (200°)15.0 mphMostly Cloudy
12:25 PM66.2 °F57.2 °F73 %29.95 in6.2 miSSW (210°)18.4 mphLight Drizzle
12:55 PM62.6 °F60.8 °F94 %29.95 in6.2 miSSW (210°)13.8 mphMostly Cloudy
1:25 PM64.4 °F59.0 °F83 %29.95 in6.2 miSSW (200°)16.1 mphMostly Cloudy
1:55 PM66.2 °F59.0 °F78 %29.95 in6.2 miSSW (200°)20.7 mphMostly Cloudy
2:00 PM66.0 °F58.0 °F70 %29.97 in22.0 miSSW (200°)17.9 mphRainRain
2:25 PM68.0 °F59.0 °F73 %29.95 in6.2 miSSW (200°)17.3 mphMostly Cloudy
2:55 PM66.2 °F57.2 °F73 %29.95 in6.2 miSW (220°)18.4 mphMostly Cloudy
3:25 PM66.2 °F57.2 °F73 %29.95 in6.2 miWSW (250°)16.1 mphMostly Cloudy
3:55 PM68.0 °F57.2 °F68 %29.95 in6.2 miWest (260°)16.1 mphPartly Cloudy
4:25 PM66.2 °F57.2 °F73 %29.95 in6.2 miWSW (250°)16.1 mphPartly Cloudy
4:55 PM68.0 °F57.2 °F68 %29.95 in6.2 miWSW (250°)15.0 mphPartly Cloudy
5:00 PM68.0 °F57.0 °F58 %29.96 in11.0 miWSW (240°)11.2 mphScattered Clouds
5:25 PM66.2 °F57.2 °F73 %29.95 in6.2 miWSW (250°)11.5 mphScattered Clouds
5:55 PM66.2 °F57.2 °F73 %29.95 in6.2 miWSW (250°)10.4 mphPartly Cloudy
6:25 PM64.4 °F55.4 °F73 %29.95 in6.2 miWest (260°)13.8 mphPartly Cloudy
6:55 PM64.4 °F55.4 °F73 %29.95 in6.2 miWSW (250°)13.8 mphPartly Cloudy
7:25 PM64.4 °F55.4 °F73 %29.95 in6.2 miSW (230°)10.4 mphOvercast
7:55 PM64.4 °F55.4 °F73 %29.95 in6.2 miWSW (250°)9.2 mphRainLight Rain
8:00 PM64.0 °F57.0 °F70 %29.95 in11.0 miWSW (240°)8.9 mphRainLight Rain Showers
8:25 PM64.4 °F57.2 °F77 %29.92 in6.2 miSSW (210°)5.8 mphMostly Cloudy
8:55 PM62.6 °F59.0 °F88 %29.92 in5.6 miSW (220°)9.2 mphRainRain
9:25 PM60.8 °F59.0 °F94 %29.92 in5.0 miSSW (200°)9.2 mphRainLight Rain
9:55 PM60.8 °F59.0 °F94 %29.92 in4.3 miSouth (190°)6.9 mphRainLight Rain
10:25 PM60.8 °F59.0 °F94 %29.92 in4.3 miSouth (170°)8.1 mphRainLight Rain
10:55 PM60.8 °F60.8 °F100 %29.92 in3.7 miSouth (180°)8.1 mphRainLight Rain
11:00 PM62.0 °F60.0 °F93 %29.93 in4.0 miSouth (170°)8.9 mphRainLight Rain
11:25 PM62.6 °F60.8 °F94 %29.92 in5.0 miSouth (170°)9.2 mphRainLight Rain
11:55 PM62.6 °F60.8 °F94 %29.89 in3.7 miSouth (170°)11.5 mphRainLight Rain
Hourly data recorded from EHAM, located miles away from Amsterdam, Netherlands







STORIES FROM OUR PARTNERS